Regional Weather Roundup
Issued by NWS Pendleton, OR

Home | Current Version | Previous Version | Text Only | Print | Product List | Glossary On
Versions: 1 2 3 4 5 6 7 8 9 10 11 12 13 14 15 16 17 18 19 20 21 22 23 24 25 26 27 28 29 30 31 32 33 34 35 36 37 38 39 40 41 42 43 44 45 46 47 48 49 50
000
ASUS46 KPDT 210125
RWRPDT
PENDLETON REGIONAL WEATHER ROUNDUP
NATIONAL WEATHER SERVICE PENDLETON OREGON
500 PM PST FRI JAN 20 2017

NOTE: FAIR INDICATES FEW OR NO CLOUDS BELOW 12,000 FEET WITH NO
SIGNIFICANT WEATHER AND/OR OBSTRUCTIONS TO VISIBILITY.

# INDICATES UNOFFICIAL STATION AND DATA

WAZ520-210210-
EAST SLOPES OF WASHINGTON CASCADES

CITY            SKY/WX      TMP DP  RH  WIND    PRES   REMARKS
#CLE ELUM HS    N/A         36  32  85  CALM    29.18F
#CLE ELUM LAKE  N/A         31  30  96  CALM    29.22S
#GLENWOOD       N/A         33  32  96  CALM    29.20R
#NELSON 3SW     N/A         31  30  96  CALM    29.44S
#NILE           N/A         32  31  96  CALM    28.49S
#TEANAWAY 4NE   N/A         33  32  96  CALM    N/A
#TROUT LAKE 1NE N/A         33  32  96  CALM    29.20R
#TROUT LAKE 1E  N/A         33  32  96  CALM    29.16R
$$

WAZ521-210210-
SIMCOE HIGHLANDS

CITY            SKY/WX      TMP DP  RH  WIND    PRES   REMARKS
#BICKLETON HS   N/A         32  32  100 N3      28.84S
#CENTERVILLE 1SWN/A         32  29  89  CALM    29.17F
#GOLDENDALE 1NE N/A         36  30  79  N2      N/A
#GOLDENDALE 4W  N/A         34  24  66  CALM    29.21R
#GOODNOE HILLS  N/A         34  28  78  W3      N/A
#LYLE 6NE       N/A         31  30  96  CALM    29.18R
#PITT 4SE       N/A         31  30  96  CALM    29.22R
$$

WAZ026-210210-
KITTITAS VALLEY

CITY            SKY/WX      TMP DP  RH  WIND    PRES   REMARKS
ELLENSBURG AP   LGT SNOW    34  31  89  NW5     29.20S FOG
#ELLENSBURG CWU N/A         33  31  92  CALM    29.20S
#ELLENSBURG 3NE N/A         32  31  96  CALM    27.32S
#KITTITAS 4N    N/A         32  30  92  W1      29.26S
#KITTITAS 3S    N/A         31  30  96  CALM    29.25S
#THORP 6N       N/A         31  30  96  SE2     29.27F
$$

WAZ027-210210-
YAKIMA VALLEY

CITY            SKY/WX      TMP DP  RH  WIND    PRES   REMARKS
SUNNYSIDE AP    CLOUDY      N/A N/A N/A CALM    29.22S HAZE
YAKIMA AIRPORT  CLOUDY      37  34  89  W8      29.20F
YAKIMA-VAGABOND CLOUDY      36  32  85  E7      29.17F
#DONALD 2NE     N/A         33  25  72  CALM    28.07S
#MABTON         N/A         30  29  96  CALM    29.22S
#NACHES 2SW     N/A         35  34  96  NE1     29.19S
#TERRACE HTS    N/A         33  32  96  CALM    29.22S
#TOPPENISH      N/A         31  30  96  CALM    29.18S
#WEST VALLEY    N/A         35  33  92  CALM    29.23F
#W YAKIMA       N/A         35  34  96  N2      29.24F
#WHITE SWAN 5E  N/A         33  32  96  CALM    29.26F
#WILEY CITY 3W  N/A         34  30  85  CALM    29.17S
$$

WAZ028-210210-
LOWER COLUMBIA BASIN...WASHINGTON

CITY            SKY/WX      TMP DP  RH  WIND    PRES   REMARKS
HANFORD         LGT RAIN    36  33  89  NW12    29.21F WCI 28
PASCO           CLOUDY      35  33  92  W5      29.23S
PROSSER AWOS    N/A         30  30  100 CALM    29.26S
RICHLAND AWOS   CLOUDY      36  34  92  NW3     29.24R
#BENTON CITY    N/A         30  28  92  W2      29.16S
#CONNELL 5N     N/A         38  32  79  NE2     29.23S
#CONNELL 5NW    N/A         34  32  92  N5      29.21S
#ELTOPIA 6NW    N/A         35  33  92  CALM    28.19F
#KAHLOTUS       N/A         38  33  82  S8      29.22F
#KENNEWICK 3S   N/A         35  32  89  CALM    29.25S
#PATERSON       N/A         37  32  82  E5      29.18F
#SAGEMOOR 2W    N/A         35  31  85  NW6     29.08S
#TOUCHET 2S     N/A         33  31  92  W2      29.21F
#WEST PASCO     N/A         36  34  92  CALM    29.14S
$$

WAZ029-210210-
FOOTHILLS OF THE BLUES...WASHINGTON

CITY            SKY/WX      TMP DP  RH  WIND    PRES   REMARKS
WALLA WALLA AP  CLOUDY      33  29  85  SE5     29.18S
#CLYDE 6NW      N/A         39  33  79  CALM    29.21F
#DAYTON SCHOOL  N/A         39  28  64  N1      29.23S
#LOWDEN 2SE     N/A         32  31  96  CALM    29.18S
#PLEASANT VIEW 1N/A         37  32  82  CALM    29.26F
#PRESCOTT       N/A         37  33  85  CALM    29.22F
#WHITMAN COLLEGEN/A         33  30  89  S3      29.27R
#WAITSBURG 5S   N/A         39  32  76  NE6     29.28F
#WAITSBURG 8N   N/A         39  N/A N/A W3      29.06S
#WALLA WALLA 5E N/A         39  34  82  NE2     N/A
#WALLA WALLA U  N/A         33  31  92  CALM    29.23F
#WHITMAN MISSIONN/A         33  31  92  CALM    29.24S
$$

WAZ030-210210-
BLUE MOUNTAINS...WASHINGTON

CITY            SKY/WX      TMP DP  RH  WIND    PRES   REMARKS
#DIXIE 5SE      N/A         41  27  57  E7      29.07S
#SKI BLUEWOOD   N/A         33  28  82  SW2     29.13F
$$

ORZ009-041-WAZ024-210210-
COLUMBIA RIVER GORGE

CITY            SKY/WX      TMP DP  RH  WIND    PRES   REMARKS
HOOD RIVER AP   MXD PCPN    32  32  100 CALM    29.20S
THE DALLES AP   LGT RAIN    34  33  96  CALM    29.22R FOG
#ARLINGTON AIRPON/A         36  32  85  CALM    29.22R
#ARLINGTON HS   N/A         36  31  82  CALM    29.10S
#CELILO DOT     N/A         34  32  92  W1      N/A
#LYLE           N/A         35  34  96  CALM    29.24R
#MOSIER 1S      N/A         33  32  96  CALM    29.20R
#MURDOCK        N/A         34  32  92  NW3     29.19R
#RUFUS DOT      N/A         35  33  92  W8      N/A
#SMITHVILLE     N/A         34  33  96  N6      29.16S

$$

ORZ510-210210-
NORTH CENTRAL OREGON

CITY            SKY/WX      TMP DP  RH  WIND    PRES   REMARKS
#ANTELOPE       N/A         36  32  85  CALM    29.00S
#CHENOWITH 1W   N/A         32  32  100 E2      N/A
#DUFUR 9E       N/A         31  30  96  E5      29.23R
#GRASS VALLEY 1SN/A         32  31  96  NE1     29.13R
#KENT DOT       N/A         33  28  82  N2      N/A
#MAUPIN SCHOOL  N/A         34  31  89  CALM    29.23S
#SHANIKO 5WSW   N/A         34  29  82  N8      N/A
#SHANIKO 4NW    N/A         33  31  92  S10     29.07S
#TYGH VALLEY 2NEN/A         33  31  92  CALM    29.21R
#WAPANITIA AIRPON/A         32  30  92  CALM    29.22R
#WASCO 5NE      N/A         32  30  92  N3      29.21R
$$

ORZ511-210210-
CENTRAL OREGON

CITY            SKY/WX      TMP DP  RH  WIND    PRES   REMARKS
BEND AIRPORT    CLOUDY      36  30  79  CALM    29.09R
MADRAS AIRPORT  LGT DRIZZLE 32  32  100 N3      29.13S
PRINEVILLE AP   CLOUDY      37  32  82  S5      29.10R
REDMOND AIRPORT CLOUDY      37  31  79  CALM    29.09R
#ASHWOOD SCHOOL N/A         40  34  79  CALM    29.13R
#BEND 1SW       N/A         35  32  89  CALM    N/A
#BEND-AWBREY    N/A         35  32  89  CALM    29.14R
#BEND-KIM LN    N/A         36  34  92  CALM    29.09R
#CULVER         N/A         33  31  92  CALM    29.07R
#CULVER 8W      N/A         35  32  89  CALM    29.22R
#MADRAS 4S      N/A         34  22  61  CALM    29.24R
#POWELL BUTTE 3EN/A         38  32  79  SE3     N/A
#POWELL BUTTE   N/A         38  30  73  S12     29.15R WCI 30
#PRINEVILLE 3N  N/A         36  33  89  E5      29.14R
#WARM SPRINGS   N/A         35  33  92  CALM    29.13R

$$


ORZ509-210210-
EAST SLOPES OF OREGON CASCADES

CITY            SKY/WX      TMP DP  RH  WIND    PRES   REMARKS
SISTERS AWOS    N/A         36  32  85  CALM    29.14R
#BLUE BOX PASS  N/A         31  N/A N/A CALM    N/A
#CAMP SHERMAN   N/A         34  31  89  CALM    29.21R
#LA PINE 4NW    N/A         34  28  78  CALM    29.16R
#LAVA BUTTE DOT N/A         33  28  82  CALM    N/A
#SISTERS ODOT   N/A         36  N/A N/A CALM    N/A
#SISTERS 3N     N/A         33  27  78  CALM    29.17S
#SUNRIVER       N/A         34  32  92  CALM    29.15R
#TUMALO 3W      N/A         34  32  92  CALM    29.02R
#WANOGA BUTTE D N/A         27  27  100 CALM    N/A

$$

ORZ044-210210-
LOWER COLUMBIA BASIN...OREGON

CITY            SKY/WX      TMP DP  RH  WIND    PRES   REMARKS
HERMISTON       CLOUDY      36  32  85  E8      29.16F
#BOARDMAN SCHOOLN/A         37  32  82  N8      29.19S
#BOARDMAN 8SW   N/A         36  33  89  N6      29.20S
#ECHO 8SW       N/A         33  33  100 CALM    29.20R
#UMATILLA       N/A         37  30  75  CALM    29.13S
$$

ORZ507-210210-
NORTHERN FOOTHILLS OF THE BLUES

CITY            SKY/WX      TMP DP  RH  WIND    PRES   REMARKS
PENDLETON AIRPT MOCLDY      42  30  62  E13     29.14S WCI 35
#ADAMS 3WNW     N/A         43  31  62  SE3     29.17S
#ATHENA         N/A         45  30  55  SW10G25 29.18S
#CAYUSE         N/A         45  30  55  N3      29.14R
#HELIX SCHOOL   N/A         42  31  65  S24G35  29.18F WCI 32
#HELIX 3N       N/A         42  31  65  N20G32  29.17S WCI 33
#HOLDMAN 5SE    N/A         39  32  76  E2      29.17S
#HOLDMAN 6E     N/A         40  32  73  SE1     28.98S
#M-F GROVE ELEM N/A         32  27  82  CALM    29.18S
#PENDLETON DNTN N/A         41  26  55  SE2     29.15S
#PDT AQUATIC CTRN/A         44  29  55  E6      29.19S
#PDT SUNRIDGE   N/A         46  29  51  E1      29.16R
#PENDLETON 7NW  N/A         36  30  79  CALM    32.00S
#PILOT ROCK     N/A         45  29  53  SE5     29.19R
#TUTUILLA       N/A         45  30  55  CALM    29.16S
#WESTON SCHOOL  N/A         45  24  43  SW14G30 29.07S WCI 39

$$

ORZ508-210210-
SOUTHERN FOOTHILLS OF THE BLUES

CITY            SKY/WX      TMP DP  RH  WIND    PRES   REMARKS
#AJAX           N/A         31  24  75  N7      27.17S
#CONDON SCHOOL  N/A         38  32  79  CALM    29.13S
#CONDON 5W      N/A         36  30  79  S2      29.08R
#FOSSIL SCHOOL  N/A         40  33  76  CALM    29.12S
#HEPPNER EOC    N/A         33  28  82  W6      29.07R
#HEPPNER 4NE    N/A         39  29  67  CALM    29.15R
#LEXINGTON 2SE  N/A         34  30  85  CALM    29.10R
#MIKKALO        N/A         33  29  85  E1      29.29S
#OLEX 4N        N/A         33  31  92  CALM    29.18R
#RUGGS 5NE      N/A         38  28  67  N6      29.27R
#RUGGS 2SW      N/A         38  30  73  S16G26  29.15R WCI 29

$$

ORZ502-503-210210-
BLUE MOUNTAINS

CITY            SKY/WX      TMP DP  RH  WIND    PRES   REMARKS
MEACHAM         CLOUDY      34  24  66  VRB3    29.13F
#GREENHORN 9SW  N/A         30  30  100 E2      25.44F
#HEPPNER 15SE   N/A         32  27  82  SE1     N/A
#LONG CREEK HS  N/A         33  32  96  E15     N/A    WCI 23
#PIKES PEAK     N/A         38  24  57  CALM    27.99S
#TOLLGATE       N/A         28  26  92  SW7     29.12R
#TROY SCHOOL    N/A         34  31  89  CALM    29.13S
#UKIAH          N/A         36  28  72  E1      29.13S
#WESTON 4E      N/A         36  28  72  SE22G35 29.15F WCI 25
$$

ORZ505-210210-
JOHN DAY BASIN

CITY            SKY/WX      TMP DP  RH  WIND    PRES   REMARKS
JOHN DAY        MOCLDY      35  31  85  E8      29.14F
#ANTELOPE 9ESE  N/A         41  34  76  W3      N/A
#DAYVILLE SCHOOLN/A         39  30  70  SE9     29.15F
#MITCHELL       N/A         37  33  85  E5      29.33R
#MITCHELL 8NW   N/A         36  30  79  S1      28.97R
#MONUMENT HS    N/A         39  29  67  E6      29.14S
#MT. VERNON 5SE N/A         32  29  89  NE3     29.08F
#SPRAY SCHOOL   N/A         36  N/A N/A CALM    N/A
$$

ORZ506-210210-
OCHOCO AND JOHN DAY HIGHLANDS

CITY            SKY/WX      TMP DP  RH  WIND    PRES   REMARKS
#HORSE RIDGE DO N/A         36  28  72  SE8     N/A
#KEYES SMT DOT  N/A         31  29  92  E8      N/A
#PINE MTN OBS   N/A         26  25  96  CALM    N/A
#PRAIRIE CITY   N/A         35  24  64  NE2     29.30F
#SENECA         N/A         31  N/A N/A CALM    N/A
#SENECA 9NW     N/A         29  27  92  CALM    29.21S
$$

ORZ049-210210-
GRANDE RONDE VALLEY

CITY            SKY/WX      TMP DP  RH  WIND    PRES   REMARKS
LA GRANDE       CLOUDY      36  30  79  S21G30  29.20R WCI 25
#COVE           N/A         37  32  82  S5      29.28S
#COVE 6NW       N/A         35  31  85  SE7     29.26S
#ELGIN 3N       N/A         35  25  66  SW12    29.24S WCI 27
#ELGIN 1E       N/A         36  29  75  S3      N/A
#IMBLER SCHOOL  N/A         33  30  89  S9      29.23F
#ISLAND CITY 4N N/A         42  39  89  CALM    29.12R
#UNION 1S       N/A         35  32  89  S10     29.28S
$$

ORZ050-210210-
WALLOWA COUNTY

CITY            SKY/WX      TMP DP  RH  WIND    PRES   REMARKS
JOSEPH AIRPORT  CLOUDY      27  25  92  CALM    29.17F
#IMNAHA SCHOOL  N/A         32  31  96  N3      29.27F
#IMNAHA 10S     N/A         29  27  92  NE1     29.25F
#JOSEPH 3N      N/A         25  21  84  NW5     29.28F
#JOSEPH 3W      N/A         28  24  85  CALM    29.10F
#LOSTINE        N/A         25  23  92  CALM    29.11S
#LOSTINE 3SE    N/A         25  24  96  CALM    29.23F
#MT HOWARD 8000 N/A         20  17  88  SE14G33 29.07R WCI  7
#PROMISE 1S     N/A         31  28  88  CALM    29.36S
#WALLOWA SCHOOL N/A         26  25  96  CALM    29.25S



$$



USA.gov is the U.S. government's official web portal to all federal, state and local government web resources and services.